Location: Mohawk View
(42.7837°N, 73.7885°W)
Time: 06:23:42
(UTC+00:00)

Aureole 3 - Pass Details

Date: 17 June 2021
Orbit: 382 x 1227 km, 82.5° (Epoch: 27 July)

Event Time Altitude Azimuth Distance (km) Brightness Sun altitude
Rises 05:33:24 0° 349° (N) 2,512 7.9 -23.3°
Reaches altitude 10° 05:35:18 10° 347° (NNW) 1,714 6.7 -23.2°
Enters shadow 05:38:55 71° 275° (W) 612 3.4 -23.1°
